Location: 81360 Arifat, France
(43.7204°N, 2.3408°E)
Time: 08:04:24
(UTC+01:00)

Vanguard 2 - Visible Passes

Search period start: 14 December 2025 00:00
Search period end: 24 December 2025 00:00
Orbit: 552 x 2898 km, 32.9° (Epoch: 13 December)

Date Brightness Start Highest point End Pass type
(mag) Time Alt. Az. Time Alt. Az. Time Alt. Az.
14 Dec 9.2 06:48:09 10° SW 06:50:54 18° S 06:54:00 10° SE visible
15 Dec 9.2 07:00:26 10° SW 07:02:49 15° S 07:05:27 10° SSE visible
16 Dec 9.8 05:10:09 12° SE 05:10:09 12° SE 05:10:32 10° SE visible
16 Dec 9.4 07:13:05 10° SW 07:14:43 12° SSW 07:16:28 10° S visible
17 Dec 9.6 05:21:40 13° SSE 05:21:40 13° SSE 05:22:21 10° SE visible
18 Dec 9.4 05:33:11 13° SSE 05:33:11 13° SSE 05:34:01 10° SSE visible
19 Dec 9.4 05:44:41 12° S 05:44:41 12° S 05:45:27 10° SSE visible
20 Dec 9.5 05:56:13 10° S 05:56:13 10° S 05:56:22 10° S visible
